Bowling Green, KY

6:25 PM CDT on September 23, 2017 (GMT -0500)
Bowling Green-Warren County Regional

Weather History for KBWG - January, 2013

Change the Weather History Date:

Wednesday, January 30, 2013

  Actual Average Record
Temperature  
Mean Temperature 54 °F 37 °F  
Max Temperature 72 °F 46 °F 72 °F (2013)
Min Temperature 35 °F 27 °F -11 °F (1966)
Degree Days  
Heating Degree Days 11 28  
Month to date heating degree days 745 882  
Since 1 July heating degree days 2170 2466  
Cooling Degree Days 0 0  
Month to date cooling degree days 0 0  
Year to date cooling degree days 0 0  
Growing Degree Days 4 (Base 50)    
Moisture  
Dew Point 46 °F    
Average Humidity 76    
Maximum Humidity 93    
Minimum Humidity 59    
Precipitation  
Precipitation 1.34 in 0.13 in 2.41 in (1939)
Month to date precipitation 5.46 3.47  
Year to date precipitation 5.46 3.47  
Snow  
Snow 0.00 in 0.20 in 4.00 in (1981)
Month to date snowfall 0.1 3.2  
Since 1 July snowfall 0.1 4.4  
Snow Depth 0.00 in    
Sea Level Pressure  
Sea Level Pressure 29.56 in    
Wind  
Wind Speed 16 mph (WSW)    
Max Wind Speed 33 mph    
Max Gust Speed 45 mph    
T = Trace of Precipitation, MM = Missing Value Source: NWS Daily Summary

Daily Weather History Graph

Daily Weather History Graph

Search for Another Location

Airport or City:

Trip Planner

Search our weather history database for the weather conditions in past years. The results will help you decide how hot, cold, wet, or windy it might be!

Date:

Astronomy

Jan. 30, 2013 Rise Set
Actual Time 6:49 AM CST 5:09 PM CST
Civil Twilight 6:22 AM CST 5:36 PM CST
Nautical Twilight 5:50 AM CST 6:07 PM CST
Astronomical Twilight 5:20 AM CST 6:38 PM CST
Moon 8:59 PM CST (1/30) 8:23 AM CST (1/30)
Length of Visible Light 11h 14m
Length of Day
10h 19m
Waning Gibbous, 87% of the Moon is Illuminated
Jan 30
Waning Gibbous
Feb 3
Last Quarter
Feb 10
New
Feb 17
First Quarter
Feb 25
Full

Hourly Weather History & Observations

Time (CST) Temp. Windchill Dew Point Humidity Pressure Visibility Wind Dir Wind Speed Gust Speed Precip Events Conditions
12:53 AM 71.1 °F - 60.1 °F 68% 29.55 in - South 25.3 mph 35.7 mph N/A   Overcast
1:53 AM 72.0 °F - 60.1 °F 66% 29.49 in - South 27.6 mph 40.3 mph N/A   Mostly Cloudy
2:53 AM 70.0 °F - 61.0 °F 73% 29.43 in - South 29.9 mph 42.6 mph 0.01 in Rain Rain
3:31 AM 62.6 °F - 57.2 °F 82% 29.51 in - WSW 17.3 mph 33.4 mph 0.44 in Rain Heavy Rain
3:39 AM 60.8 °F - 57.2 °F 88% 29.53 in - West 17.3 mph 34.5 mph 0.55 in Rain Heavy Rain
3:53 AM 57.0 °F - 53.1 °F 87% 29.53 in - WNW 15.0 mph 29.9 mph 0.60 in Rain Rain
3:56 AM 57.2 °F - 53.6 °F 88% 29.53 in - NW 10.4 mph 29.9 mph 0.01 in Rain Rain
4:53 AM 55.0 °F - 52.0 °F 89% 29.55 in - West 5.8 mph - 0.16 in Rain Rain
5:53 AM 55.0 °F - 53.1 °F 93% 29.59 in - South 10.4 mph - 0.23 in Rain Rain
6:27 AM 53.6 °F - 51.8 °F 94% 29.58 in - SSE 5.8 mph - 0.03 in Rain Light Rain
6:53 AM 55.0 °F - 53.1 °F 93% 29.58 in - SSE 6.9 mph - 0.09 in Rain Rain
7:53 AM 55.0 °F - 53.1 °F 93% 29.53 in - SSE 10.4 mph - 0.11 in Rain Light Rain
8:53 AM 55.9 °F - 53.1 °F 90% 29.51 in - SSE 15.0 mph 20.7 mph 0.06 in Rain Light Rain
9:53 AM 57.0 °F - 52.0 °F 83% 29.52 in - South 10.4 mph - 0.01 in   Scattered Clouds
10:53 AM 57.0 °F - 51.1 °F 81% 29.50 in - South 16.1 mph 20.7 mph N/A   Scattered Clouds
11:53 AM 57.0 °F - 50.0 °F 77% 29.48 in - SSW 15.0 mph 23.0 mph N/A   Partly Cloudy
12:53 PM 57.0 °F - 48.9 °F 74% 29.47 in - SW 19.6 mph 25.3 mph N/A   Overcast
1:53 PM 57.9 °F - 48.9 °F 72% 29.45 in - SW 11.5 mph 21.9 mph N/A   Mostly Cloudy
2:53 PM 57.9 °F - 48.0 °F 70% 29.43 in - SW 12.7 mph - N/A   Mostly Cloudy
3:53 PM 57.0 °F - 44.1 °F 62% 29.44 in - SW 15.0 mph 24.2 mph N/A   Mostly Cloudy
4:48 PM 50.0 °F - 44.6 °F 82% 29.49 in - WNW 29.9 mph 43.7 mph 0.07 in Rain Light Rain
4:53 PM 48.9 °F - 42.1 °F 77% 29.49 in - West 24.2 mph 43.7 mph 0.07 in   Overcast
5:03 PM 48.2 °F - 41.0 °F 76% 29.50 in - West 19.6 mph 32.2 mph N/A   Overcast
5:36 PM 46.4 °F 39.5 °F 41.0 °F 81% 29.54 in - West 17.3 mph 23.0 mph 0.00 in Rain Light Rain
5:53 PM 46.9 °F - 39.0 °F 74% 29.55 in - West 19.6 mph 29.9 mph 0.00 in   Overcast
6:53 PM 41.0 °F 31.4 °F 33.1 °F 73% 29.60 in - WNW 21.9 mph 34.5 mph 0.00 in Rain Light Rain
7:53 PM 37.9 °F 30.9 °F 32.0 °F 79% 29.69 in - NW 10.4 mph 21.9 mph 0.00 in Rain Light Rain
8:53 PM 37.0 °F 26.4 °F 27.0 °F 67% 29.74 in - West 20.7 mph 28.8 mph 0.00 in   Overcast
9:05 PM 37.4 °F 29.3 °F 26.6 °F 65% 29.75 in - WNW 12.7 mph 26.5 mph N/A   Overcast
9:53 PM 36.0 °F 25.6 °F 25.0 °F 64% 29.79 in - WNW 18.4 mph 29.9 mph N/A   Overcast
10:53 PM 35.1 °F 24.5 °F 23.0 °F 61% 29.84 in - West 18.4 mph 28.8 mph N/A   Overcast
11:53 PM 35.1 °F 25.9 °F 24.1 °F 64% 29.88 in - West 13.8 mph 23.0 mph N/A   Overcast